Date,TemperatureHighF,TemperatureAvgF,TemperatureLowF,DewpointHighF,DewpointAvgF,DewpointLowF,HumidityHigh,HumidityAvg,HumidityLow,PressureMaxIn,PressureMinIn,WindSpeedMaxMPH,WindSpeedAvgMPH,GustSpeedMaxMPH,PrecipitationSumIn
2013-3-1,39.6,36.0,33.3,29.9,27.6,24.9,80,72,63,29.77,29.72,14,6,14,0.00
2013-3-2,38.8,34.8,30.4,29.7,26.5,20.4,81,72,57,29.79,29.69,16,7,16,0.00
2013-3-3,37.9,31.3,26.4,20.2,17.3,14.5,68,56,43,29.84,29.75,16,8,16,0.00
2013-3-4,62.1,43.2,29.1,27.0,19.6,9.8,60,41,22,29.93,29.83,12,5,12,0.00
2013-3-5,53.6,48.2,39.2,51.0,43.8,27.2,99,85,58,29.87,29.47,21,5,30,0.27
2013-3-6,46.2,33.3,29.8,37.0,25.7,18.1,79,74,56,29.92,29.62,18,10,30,0.27
2013-3-7,61.2,49.8,30.4,32.5,29.0,24.6,85,47,26,30.02,29.91,12,6,17,0.27
2013-3-8,66.6,52.8,27.7,29.9,19.6,12.4,82,34,17,30.09,29.97,9,4,14,0.27
2013-3-9,63.5,58.9,46.9,28.8,26.4,20.7,39,29,21,30.10,30.02,8,4,11,0.27
2013-3-10,67.5,64.7,51.6,34.0,31.1,27.9,40,28,24,30.04,29.93,13,10,17,0.27
2013-3-11,58.3,54.9,51.8,54.4,51.7,47.8,100,89,80,29.89,29.64,11,7,15,1.42
2013-3-12,58.5,52.8,45.3,54.0,31.3,22.2,99,46,27,29.88,29.62,14,5,20,0.05
2013-3-13,52.5,44.3,34.5,29.8,24.0,16.0,72,48,26,29.93,29.87,13,4,21,0.00
2013-3-14,54.0,46.1,27.3,21.9,11.6,2.4,64,27,17,30.11,29.91,14,4,21,0.00
2013-3-15,72.7,55.4,36.5,41.4,35.4,21.9,80,50,27,30.01,29.78,12,3,24,0.00
2013-3-16,77.2,64.1,54.5,46.2,41.6,37.1,62,45,28,29.80,29.69,14,4,24,0.00
2013-3-17,75.6,62.6,50.4,53.8,46.7,41.1,79,57,41,29.81,29.72,9,3,15,0.00
2013-3-18,59.0,49.1,44.4,53.3,46.5,43.4,100,91,64,29.84,29.63,10,2,14,0.37
2013-3-19,61.2,48.3,41.7,48.9,36.7,14.1,100,71,22,29.89,29.69,11,2,17,0.00
2013-3-20,61.3,49.5,38.7,30.3,15.5,6.5,70,29,17,29.89,29.69,15,4,22,0.00
2013-3-21,44.6,35.7,26.8,29.7,12.4,-0.3,70,43,17,29.73,29.67,14,6,22,0.00
2013-3-22,54.0,37.2,32.9,25.6,18.1,7.9,55,46,29,29.83,29.71,4,1,7,0.00
2013-3-23,57.7,48.3,43.2,50.5,42.1,26.2,97,80,34,29.79,29.63,9,2,14,0.43
2013-3-24,52.2,48.8,46.8,48.8,47.3,46.4,100,95,83,29.65,29.39,8,3,11,0.83
2013-3-25,37.0,36.0,35.2,28.5,27.8,25.4,75,72,68,29.50,29.48,12,6,22,0.86
2013-3-26,39.2,34.2,30.6,25.3,23.7,21.4,76,66,53,30.02,29.77,13,5,24,0.00
2013-3-27,52.5,40.5,31.3,25.0,20.6,14.7,71,48,23,30.08,30.00,10,4,19,0.00
2013-3-28,58.8,44.6,31.6,27.6,20.9,9.4,67,43,17,30.09,30.00,11,4,20,0.00
2013-3-29,63.9,48.0,32.2,34.7,27.3,19.7,73,48,21,30.13,29.99,5,1,11,0.00
2013-3-30,72.7,56.6,44.8,53.4,41.1,36.4,94,60,28,30.00,29.84,5,2,10,0.28
2013-3-31,68.5,58.4,53.8,59.1,55.2,53.1,100,90,64,29.85,29.69,6,2,9,0.83